[[{"header":{"parameterUnit":"m.s-1","parameterCategory":1,"la1":30.2991,"la2":30.254,"lo1":-89.0895,"lo2":-89.0444,"dy":0.0017,"dx":0.0017,"nx":28,"ny":28,"refTime":"2025-06-02T03:00:00:Z","depth":0,"parameterNumber":2,"parameterNumberName":"U-component_of_WINDS"},"data":[0,0,0,0,0,0,0,0,0,0,0,0,0,0,0,0,0,0,0,0,0,0,0,0,0,0,0,0,0,0,0,0,0,0,0,0,0,0,0,0,0,0,0,0,0,0,0,0,0,0,0,0,0,0,0,0,0,0,-7.1406,-7.1407,0,-7.1497,-7.1498,-7.1499,-7.1406,-7.1403,-7.1399,-7.1396,-7.1487,-7.1492,-7.1498,0,0,0,0,0,0,0,0,0,0,0,0,0,-7.115,-7.1155,-7.1406,-7.1407,-7.1409,-7.1497,-7.1498,-7.15,-7.1407,-7.1403,-7.1398,-7.1394,-7.1485,-7.1492,-7.1498,0,0,0,0,0,0,0,0,0,0,0,0,0,-7.1253,-7.1157,-7.1406,-7.1373,-7.1371,-7.1497,-7.1498,-7.15,-7.1408,-7.1403,-7.1397,-7.1392,-7.1482,-7.1491,-7.1499,-7.1661,0,0,-7.1526,-7.153,0,0,0,0,0,0,0,0,-7.1247,-7.1262,-7.1377,-7.1376,-7.1374,-7.1435,-7.1441,-7.1554,-7.1409,-7.1394,-7.1396,-7.1389,-7.1474,-7.1483,-7.1512,-7.1666,-7.1669,-7.1527,-7.1532,-7.1536,-7.1538,0,0,0,0,0,0,0,-7.124,-7.1258,-7.1442,-7.1379,-7.1377,-7.1353,-7.1362,-7.1462,-7.1463,-7.1395,-7.1388,-7.1401,-7.1472,-7.1503,-7.1513,-7.1671,-7.1526,-7.1534,-7.154,-7.1543,-7.1959,-7.1965,0,0,0,0,0,0,-7.1237,-7.1253,-7.1439,-7.1445,-7.1296,-7.1362,-7.1372,-7.1421,-7.1462,-7.1463,-7.1405,-7.1396,-7.1491,-7.1503,-7.1516,-7.1705,-7.1536,-7.1544,-7.1549,-7.1953,-7.196,-7.1967,0,0,0,0,0,0,-7.1232,-7.1255,-7.1436,-7.1347,-7.1368,-7.1372,-7.1428,-7.1425,-7.1457,-7.1469,-7.1469,-7.1437,-7.1487,-7.1504,-7.1625,-7.1707,-7.1548,-7.1556,-7.1946,-7.1955,-7.1964,-7.2086,0,0,0,0,0,0,-7.1225,-7.1253,-7.1315,-7.1349,-7.1373,-7.1545,-7.1433,-7.1431,-7.1472,-7.1461,-7.15,-7.1501,-7.1484,-7.1613,-7.1634,-7.1716,-7.1562,-7.1939,-7.195,-7.1961,-7.2074,-7.2098,-7.2118,0,0,0,0,0,-7.1216,-7.1346,-7.1319,-7.1342,-7.1451,-7.1549,-7.1563,-7.1542,-7.148,-7.1541,-7.1549,-7.1499,-7.1696,-7.1626,-7.1649,-7.1735,-7.1934,-7.1947,-7.196,-7.2065,-7.2093,-7.2117,0,0,0,0,0,0,-7.1321,-7.135,-7.132,-7.1466,-7.1506,-7.1534,-7.161,-7.1574,-7.1632,-7.1619,-7.159,-7.16,-7.1728,-7.1744,-7.1666,-7.1892,-7.1804,-7.1823,-7.1876,-7.1903,-7.1924,-7.1915,-7.157,0,0,0,0,0,-7.1362,-7.144,-7.1461,-7.1587,-7.1609,-7.1607,-7.1649,-7.163,-7.167,-7.1686,-7.1703,-7.1743,-7.1813,-7.186,-7.1926,-7.2078,-7.2083,-7.2148,-7.217,-7.2188,-7.2202,-7.2281,-7.2309,-7.201,-7.201,-7.201,0,0,-7.1445,-7.147,-7.1521,-7.1609,-7.1637,-7.1717,-7.1621,-7.1711,-7.1769,-7.1699,-7.1813,-7.1828,-7.1871,-7.2008,-7.2069,-7.2025,-7.2287,-7.2204,-7.2218,-7.2223,-7.2297,-7.2325,-7.2351,-7.2019,-7.2017,-7.2016,0,0,-7.1636,-7.1666,-7.1772,-7.1803,-7.1848,-7.1846,-7.1872,-7.1906,-7.1913,-7.2028,-7.1977,-7.2046,-7.2169,-7.22,-7.2233,-7.2438,-7.2393,-7.246,-7.2571,-7.2648,-7.2671,-7.2692,-7.2761,-7.2786,-7.2476,-7.2476,-7.2476,0,-7.1733,-7.1852,-7.1831,-7.1924,-7.1962,-7.1905,-7.2011,-7.2042,-7.2106,-7.2134,-7.2085,-7.2236,-7.2261,-7.2403,-7.2453,-7.2483,-7.2509,-7.2453,-7.267,-7.269,-7.2709,-7.2774,-7.2801,-7.2484,-7.2483,-7.2482,-7.2481,0,-7.1968,-7.2051,-7.2132,-7.2195,-7.2244,-7.2343,-7.2335,-7.2387,-7.2364,-7.2367,-7.2484,-7.2513,-7.2582,-7.2615,-7.2595,-7.2754,-7.2725,-7.2674,-7.2584,-7.2745,-7.2806,-7.2831,-7.2494,-7.2492,-7.2489,-7.2488,0,0,-7.2224,-7.2275,-7.2305,-7.2332,-7.2378,-7.2441,-7.2538,-7.2606,-7.2649,-7.2697,-7.2774,-7.288,-7.2832,-7.2869,-7.2852,-7.292,-7.3076,-7.286,-7.286,-7.2895,-7.3249,-7.3283,-7.3313,-7.3049,-7.3054,-7.3057,-7.3244,0,-7.2413,-7.258,-7.2564,-7.2721,-7.2796,-7.2743,-7.2827,-7.2864,-7.287,-7.2933,-7.294,-7.3013,-7.2948,-7.2969,-7.3035,-7.3043,-7.3145,-7.303,-7.3117,-7.3121,-7.3103,-7.3345,-7.3382,-7.3556,-7.3268,-7.3272,-7.3275,0,-7.2655,-7.271,-7.2875,-7.2908,-7.2939,-7.3015,-7.3074,-7.3138,-7.3178,-7.3177,-7.3219,-7.319,-7.3285,-7.3198,-7.3327,-7.3248,-7.3284,-7.3294,-7.33,-7.3303,-7.3204,-7.335,-7.3612,-7.3636,-7.3313,-7.331,-7.3307,0,-7.2819,-7.2936,-7.3048,-7.3074,-7.3117,-7.317,-7.3191,-7.3226,-7.3268,-7.3321,-7.3347,-7.3411,-7.3445,-7.3495,-7.3483,-7.3421,-7.3614,-7.3526,-7.3613,-7.3614,-7.3652,-7.3649,-7.3918,-7.3684,-7.3684,-7.3683,-7.3683,0,-7.3029,-7.3131,-7.3122,-7.3191,-7.3303,-7.3285,-7.3396,-7.341,-7.3442,-7.3511,-7.3472,-7.3537,-7.352,-7.3586,-7.3578,-7.3684,-7.3701,-7.3701,-7.3697,-7.3702,-7.3701,-7.372,-7.3706,-7.369,-7.3689,-7.3687,-7.3686,0,-7.3229,-7.3228,-7.3347,-7.3379,-7.3389,-7.347,-7.3495,-7.356,-7.3564,-7.3652,-7.3672,-7.3677,-7.3752,-7.3747,-7.3831,-7.3826,-7.3955,-7.394,-7.3941,-7.3936,-7.4021,-7.4011,-7.4309,-7.4345,-7.4092,-7.4095,-7.4097,0,-7.336,-7.3437,-7.3477,-7.3521,-7.3544,-7.3616,-7.3658,-7.3643,-7.3689,-7.3741,-7.3798,-7.3869,-7.3925,-7.4047,-7.4057,-7.4121,-7.4103,-7.4204,-7.4112,-7.4114,-7.4099,-7.4092,-7.4098,-7.4219,-7.4222,-7.4225,-7.4227,0,-7.3591,-7.3587,-7.365,-7.3712,-7.3764,-7.3812,-7.3856,-7.3895,-7.3884,-7.3937,-7.4013,-7.4056,-7.4142,-7.4212,-7.4274,-7.4293,-7.4257,-7.4256,-7.4278,-7.4281,-7.4277,-7.4276,-7.3984,-7.4248,-7.4246,-7.4244,-7.4243,-7.4242,-7.3758,-7.3822,-7.386,-7.393,-7.3962,-7.4004,-7.4065,-7.4077,-7.414,-7.4209,-7.4197,-7.4281,-7.4319,-7.4397,-7.4424,-7.4488,-7.4452,-7.4486,-7.4494,-7.4501,-7.4509,-7.4272,-7.45,-7.45,-7.4499,-7.4499,-7.4498,0,-7.3982,-7.4004,-7.407,-7.4132,-7.4188,-7.4152,-7.4199,-7.4246,-7.4321,-7.436,-7.4416,-7.4502,-7.457,-7.4587,-7.4652,-7.4701,-7.4686,-7.4718,-7.4711,-7.4716,-7.454,-7.4511,-7.4729,-7.4729,-7.4729,-7.4728,-7.4728,-7.4728,-7.4105,-7.4212,-7.4212,-7.4334,-7.4355,-7.4437,-7.4466,-7.4504,-7.4535,-7.4633,-7.4689,-7.47,-7.473,-7.4797,-7.4857,-7.486,-7.4884,-7.4922,-7.4918,-7.4752,-7.4729,-7.4706,-7.4679,-7.4928,-7.4929,-7.5088,-7.5089,-7.509]},{"header":{"parameterUnit":"m.s-1","parameterCategory":1,"la1":30.2991,"la2":30.254,"lo1":-89.0895,"lo2":-89.0444,"dy":0.0017,"dx":0.0017,"nx":28,"ny":28,"refTime":"2025-06-02T03:00:00:Z","depth":0,"parameterNumber":3,"parameterNumberName":"V-component_of_WINDS"},"data":[0,0,0,0,0,0,0,0,0,0,0,0,0,0,0,0,0,0,0,0,0,0,0,0,0,0,0,0,0,0,0,0,0,0,0,0,0,0,0,0,0,0,0,0,0,0,0,0,0,0,0,0,0,0,0,0,0,0,3.0164,3.0164,0,3.0164,3.0164,3.0164,3.0109,3.0108,3.0106,3.0105,3.0105,3.0106,3.0107,0,0,0,0,0,0,0,0,0,0,0,0,0,3.0114,3.0115,3.0164,3.0164,3.0164,3.0164,3.0164,3.0164,3.0109,3.0108,3.0106,3.0104,3.0104,3.0106,3.0108,0,0,0,0,0,0,0,0,0,0,0,0,0,3.0127,3.0116,3.0164,3.0136,3.0134,3.0164,3.0164,3.0164,3.011,3.0108,3.0105,3.0103,3.0104,3.0106,3.0108,3.0164,0,0,3.0114,3.0115,0,0,0,0,0,0,0,0,3.0127,3.0129,3.014,3.0138,3.0136,3.0134,3.0147,3.0164,3.011,3.0119,3.0105,3.0102,3.0116,3.0117,3.0122,3.0164,3.0164,3.0114,3.0115,3.0116,3.0117,0,0,0,0,0,0,0,3.0126,3.0129,3.0164,3.0141,3.0138,3.0124,3.0123,3.015,3.013,3.0118,3.0114,3.0115,3.0115,3.012,3.0122,3.0164,3.0114,3.0116,3.0117,3.0118,3.0252,3.0254,0,0,0,0,0,0,3.0129,3.0129,3.0164,3.0164,3.0126,3.0127,3.0126,3.0137,3.0129,3.0126,3.0117,3.0112,3.0118,3.0119,3.0121,3.0186,3.0116,3.0118,3.0119,3.025,3.0253,3.0255,0,0,0,0,0,0,3.0128,3.0132,3.0164,3.0145,3.0148,3.013,3.0143,3.0138,3.0144,3.0129,3.0125,3.0126,3.0116,3.0119,3.0154,3.0186,3.0119,3.0121,3.0247,3.0251,3.0254,3.0317,0,0,0,0,0,0,3.0127,3.0133,3.0154,3.0146,3.0149,3.0196,3.0145,3.014,3.0148,3.0142,3.0136,3.0133,3.0115,3.0151,3.0156,3.0187,3.0122,3.0244,3.0249,3.0253,3.0312,3.0322,3.0331,0,0,0,0,0,3.0125,3.0171,3.0155,3.0159,3.0175,3.0198,3.02,3.0178,3.015,3.0171,3.0162,3.0133,3.0182,3.0155,3.016,3.0192,3.0242,3.0247,3.0253,3.0308,3.032,3.0331,0,0,0,0,0,0,3.0182,3.0169,3.0151,3.0196,3.0199,3.0189,3.0214,3.0192,3.0202,3.0196,3.0168,3.0167,3.0207,3.0204,3.0174,3.0247,3.0207,3.0214,3.0247,3.0259,3.0268,3.0268,3.0124,0,0,0,0,0,3.02,3.022,3.0208,3.0248,3.0251,3.0233,3.0242,3.0225,3.0226,3.0227,3.022,3.0222,3.0238,3.0248,3.0262,3.0312,3.031,3.0337,3.0346,3.0354,3.036,3.0386,3.0397,3.0273,3.0273,3.0272,0,0,3.0236,3.0232,3.0246,3.026,3.026,3.0281,3.0234,3.0258,3.0273,3.023,3.0263,3.0258,3.0259,3.0302,3.0321,3.03,3.0394,3.0361,3.0367,3.0368,3.0392,3.0404,3.0415,3.0276,3.0276,3.0275,0,0,3.0314,3.0313,3.0347,3.0348,3.0349,3.0337,3.0345,3.0339,3.0335,3.0367,3.0336,3.0354,3.0381,3.0383,3.0388,3.0468,3.0442,3.0473,3.0522,3.0548,3.0558,3.0566,3.0594,3.0605,3.0479,3.0479,3.0479,0,3.0359,3.0389,3.0367,3.0393,3.04,3.0364,3.0397,3.04,3.0405,3.0411,3.0388,3.0422,3.042,3.0463,3.0483,3.0488,3.0496,3.0473,3.0559,3.0567,3.0574,3.0601,3.0611,3.0483,3.0483,3.0482,3.0482,0,3.0445,3.0467,3.0494,3.0501,3.0511,3.0541,3.0523,3.0536,3.0519,3.0509,3.0543,3.054,3.0552,3.0561,3.0544,3.0602,3.0589,3.0563,3.0522,3.059,3.0614,3.0624,3.0488,3.0487,3.0486,3.0485,0,0,3.0555,3.0551,3.0561,3.0564,3.0563,3.0579,3.0609,3.0621,3.0633,3.0638,3.0661,3.0686,3.0663,3.0668,3.0651,3.0674,3.0737,3.0645,3.0645,3.0661,3.08,3.0818,3.083,3.0721,3.0723,3.0724,3.0799,0,3.063,3.0679,3.066,3.071,3.073,3.0697,3.0722,3.0724,3.0717,3.0732,3.0724,3.0742,3.0709,3.0712,3.0734,3.0725,3.0764,3.072,3.0741,3.0743,3.0741,3.0843,3.0863,3.0933,3.0809,3.081,3.0812,0,3.0722,3.0732,3.0785,3.0781,3.0789,3.0812,3.0822,3.0838,3.0841,3.0833,3.084,3.0819,3.0847,3.0808,3.0846,3.0816,3.0824,3.0822,3.0824,3.0824,3.078,3.0845,3.0956,3.0966,3.0826,3.0825,3.0824,0,3.0797,3.0824,3.0858,3.0862,3.0859,3.0876,3.0876,3.0876,3.0885,3.0894,3.09,3.0913,3.0919,3.0929,3.0912,3.0885,3.0952,3.0912,3.0947,3.0947,3.0961,3.096,3.1073,3.0969,3.0968,3.0968,3.0968,0,3.0881,3.0914,3.0892,3.0913,3.095,3.0928,3.0965,3.0961,3.0961,3.0981,3.0954,3.0973,3.0949,3.0966,3.0953,3.0986,3.099,3.0984,3.098,3.0986,3.0987,3.099,3.0984,3.0971,3.097,3.097,3.0969,0,3.0969,3.0956,3.0991,3.0987,3.0986,3.1013,3.1009,3.1028,3.1019,3.1045,3.105,3.1036,3.1055,3.1039,3.1057,3.1048,3.1092,3.1081,3.1091,3.1088,3.1123,3.1119,3.1241,3.1256,3.1143,3.1144,3.1145,0,3.1023,3.1047,3.1046,3.1057,3.1059,3.1078,3.1087,3.1068,3.1079,3.1084,3.1103,3.1119,3.1131,3.1163,3.1154,3.1168,3.1157,3.1199,3.1158,3.1164,3.1156,3.1154,3.1156,3.1206,3.1207,3.1208,3.1209,0,3.1119,3.1112,3.1126,3.114,3.1152,3.1161,3.1168,3.1179,3.1159,3.1173,3.1192,3.1202,3.1221,3.1237,3.1249,3.1248,3.1225,3.1223,3.1231,3.1236,3.1241,3.1238,3.1112,3.1219,3.1218,3.1217,3.1217,3.1217,3.1191,3.1211,3.1214,3.1231,3.1235,3.1243,3.1261,3.1255,3.1271,3.1285,3.1272,3.1295,3.1298,3.1311,3.1313,3.133,3.1313,3.1325,3.1328,3.1331,3.1336,3.1239,3.1332,3.1332,3.1332,3.1332,3.1331,0,3.1285,3.1285,3.1302,3.1313,3.1327,3.1306,3.1313,3.1326,3.1347,3.1351,3.1364,3.1386,3.1403,3.1396,3.1411,3.1426,3.1416,3.143,3.1428,3.1428,3.1351,3.1342,3.1438,3.1438,3.1438,3.1438,3.1438,3.1438,3.1335,3.1369,3.1362,3.1398,3.1398,3.142,3.1426,3.1433,3.1436,3.1463,3.1476,3.1472,3.1472,3.1487,3.1501,3.1499,3.1505,3.1522,3.1516,3.1444,3.1434,3.1423,3.1414,3.1524,3.1524,3.1591,3.1592,3.1593]}]]